Year,Month,Day,Hour,Minute,Value (Times are PST for temperature in C)
2014,06,23,00,00,9.40
2014,06,23,00,01,9.40
2014,06,23,00,02,9.40
2014,06,23,00,03,9.40
2014,06,23,00,04,9.40
2014,06,23,00,05,9.40
2014,06,23,00,06,9.40
2014,06,23,00,07,9.40
2014,06,23,00,08,9.40
2014,06,23,00,09,9.40
2014,06,23,00,10,9.40
2014,06,23,00,11,9.40
2014,06,23,00,12,9.40
2014,06,23,00,13,9.40
2014,06,23,00,14,9.40
2014,06,23,00,15,9.40
2014,06,23,00,16,9.40
2014,06,23,00,17,9.40
2014,06,23,00,18,9.40
2014,06,23,00,19,9.40
2014,06,23,00,20,9.40
2014,06,23,00,21,9.40
2014,06,23,00,22,9.40
2014,06,23,00,23,9.40
2014,06,23,00,24,9.40
2014,06,23,00,25,9.40
2014,06,23,00,26,9.40
2014,06,23,00,27,9.40
2014,06,23,00,28,9.40
2014,06,23,00,29,9.40
2014,06,23,00,30,9.40
2014,06,23,00,31,8.90
2014,06,23,00,32,8.90
2014,06,23,00,33,8.90
2014,06,23,00,34,8.90
2014,06,23,00,35,8.90
2014,06,23,00,36,8.90
2014,06,23,00,37,8.90
2014,06,23,00,38,8.90
2014,06,23,00,39,8.90
2014,06,23,00,40,8.90
2014,06,23,00,41,8.90
2014,06,23,00,42,8.90
2014,06,23,00,43,8.90
2014,06,23,00,44,8.90
2014,06,23,00,45,8.90
2014,06,23,00,46,9.40
2014,06,23,00,47,9.40
2014,06,23,00,48,9.40
2014,06,23,00,49,9.40
2014,06,23,00,50,9.40
2014,06,23,00,51,9.40
2014,06,23,00,52,9.40
2014,06,23,00,53,9.40
2014,06,23,00,54,9.40
2014,06,23,00,55,9.40
2014,06,23,00,56,9.40
2014,06,23,00,57,9.40
2014,06,23,00,58,9.40
2014,06,23,00,59,9.40
2014,06,23,01,00,9.40
2014,06,23,01,02,8.80
2014,06,23,01,03,8.80
2014,06,23,01,04,8.80
2014,06,23,01,05,8.80
2014,06,23,01,06,8.80
2014,06,23,01,07,8.80
2014,06,23,01,08,8.80
2014,06,23,01,09,8.80
2014,06,23,01,10,8.80
2014,06,23,01,11,8.80
2014,06,23,01,12,8.80
2014,06,23,01,13,8.80
2014,06,23,01,14,8.80
2014,06,23,01,15,8.80
2014,06,23,01,16,9.50
2014,06,23,01,17,9.50
2014,06,23,01,18,9.50
2014,06,23,01,19,9.50
2014,06,23,01,20,9.50
2014,06,23,01,21,9.50
2014,06,23,01,22,9.50
2014,06,23,01,23,9.50
2014,06,23,01,24,9.50
2014,06,23,01,25,9.50
2014,06,23,01,26,9.50
2014,06,23,01,27,9.50
2014,06,23,01,28,9.50
2014,06,23,01,29,9.50
2014,06,23,01,30,9.50
2014,06,23,01,31,9.20
2014,06,23,01,32,9.20
2014,06,23,01,33,9.20
2014,06,23,01,34,9.20
2014,06,23,01,35,9.20
2014,06,23,01,36,9.20
2014,06,23,01,37,9.20
2014,06,23,01,38,9.20
2014,06,23,01,39,9.20
2014,06,23,01,40,9.20
2014,06,23,01,41,9.20
2014,06,23,01,42,9.20
2014,06,23,01,43,9.20
2014,06,23,01,44,9.20
2014,06,23,01,45,9.20
2014,06,23,01,46,8.70
2014,06,23,01,47,8.70
2014,06,23,01,48,8.70
2014,06,23,01,49,8.70
2014,06,23,01,50,8.70
2014,06,23,01,51,8.70
2014,06,23,01,52,8.70
2014,06,23,01,53,8.70
2014,06,23,01,54,8.70
2014,06,23,01,55,8.70
2014,06,23,01,56,8.70
2014,06,23,01,57,8.70
2014,06,23,01,58,8.70
2014,06,23,01,59,8.70
2014,06,23,02,00,8.70
2014,06,23,02,01,8.50
2014,06,23,02,02,8.50
2014,06,23,02,03,8.50
2014,06,23,02,04,8.50
2014,06,23,02,05,8.50
2014,06,23,02,06,8.50
2014,06,23,02,07,8.50
2014,06,23,02,08,8.50
2014,06,23,02,09,8.50
2014,06,23,02,10,8.50
2014,06,23,02,11,8.50
2014,06,23,02,12,8.50
2014,06,23,02,13,8.50
2014,06,23,02,14,8.50
2014,06,23,02,15,8.50
2014,06,23,02,16,8.70
2014,06,23,02,17,8.70
2014,06,23,02,18,8.70
2014,06,23,02,19,8.70
2014,06,23,02,20,8.70
2014,06,23,02,21,8.70
2014,06,23,02,22,8.70
2014,06,23,02,23,8.70
2014,06,23,02,24,8.70
2014,06,23,02,25,8.70
2014,06,23,02,26,8.70
2014,06,23,02,27,8.70
2014,06,23,02,28,8.70
2014,06,23,02,29,8.70
2014,06,23,02,30,8.70
2014,06,23,02,31,9.00
2014,06,23,02,32,9.00
2014,06,23,02,33,9.00
2014,06,23,02,34,9.00
2014,06,23,02,35,9.00
2014,06,23,02,36,9.00
2014,06,23,02,37,9.00
2014,06,23,02,38,9.00
2014,06,23,02,39,9.00
2014,06,23,02,40,9.00
2014,06,23,02,41,9.00
2014,06,23,02,42,9.00
2014,06,23,02,43,9.00
2014,06,23,02,44,9.00
2014,06,23,02,45,9.00
2014,06,23,02,46,9.40
2014,06,23,02,47,9.40
2014,06,23,02,48,9.40
2014,06,23,02,49,9.40
2014,06,23,02,50,9.40
2014,06,23,02,51,9.40
2014,06,23,02,52,9.40
2014,06,23,02,53,9.40
2014,06,23,02,54,9.40
2014,06,23,02,55,9.40
2014,06,23,02,56,9.40
2014,06,23,02,57,9.40
2014,06,23,02,58,9.40
2014,06,23,02,59,9.40
2014,06,23,03,00,9.40
2014,06,23,03,01,9.40
2014,06,23,03,02,9.20
2014,06,23,03,03,9.20
2014,06,23,03,04,9.20
2014,06,23,03,05,9.20
2014,06,23,03,06,9.20
2014,06,23,03,07,9.20
2014,06,23,03,08,9.20
2014,06,23,03,09,9.20
2014,06,23,03,10,9.20
2014,06,23,03,11,9.20
2014,06,23,03,12,9.20
2014,06,23,03,13,9.20
2014,06,23,03,14,9.20
2014,06,23,03,15,9.20
2014,06,23,03,16,8.60
2014,06,23,03,17,8.60
2014,06,23,03,18,8.60
2014,06,23,03,19,8.60
2014,06,23,03,20,8.60
2014,06,23,03,21,8.60
2014,06,23,03,22,8.60
2014,06,23,03,23,8.60
2014,06,23,03,24,8.60
2014,06,23,03,25,8.60
2014,06,23,03,26,8.60
2014,06,23,03,27,8.60
2014,06,23,03,28,8.60
2014,06,23,03,29,8.60
2014,06,23,03,30,8.60
2014,06,23,03,31,8.50
2014,06,23,03,32,8.50
2014,06,23,03,33,8.50
2014,06,23,03,34,8.50
2014,06,23,03,35,8.50
2014,06,23,03,36,8.50
2014,06,23,03,37,8.50
2014,06,23,03,38,8.50
2014,06,23,03,39,8.50
2014,06,23,03,40,8.50
2014,06,23,03,41,8.50
2014,06,23,03,42,8.50
2014,06,23,03,43,8.50
2014,06,23,03,44,8.50
2014,06,23,03,45,8.50
2014,06,23,03,46,8.20
2014,06,23,03,47,8.20
2014,06,23,03,48,8.20
2014,06,23,03,49,8.20
2014,06,23,03,50,8.20
2014,06,23,03,51,8.20
2014,06,23,03,52,8.20
2014,06,23,03,53,8.20
2014,06,23,03,54,8.20
2014,06,23,03,55,8.20
2014,06,23,03,56,8.20
2014,06,23,03,57,8.20
2014,06,23,03,58,8.20
2014,06,23,03,59,8.20
2014,06,23,04,00,8.20
2014,06,23,04,01,7.90
2014,06,23,04,02,7.90
2014,06,23,04,03,7.90
2014,06,23,04,04,7.90
2014,06,23,04,05,7.90
2014,06,23,04,06,7.90
2014,06,23,04,07,7.90
2014,06,23,04,08,7.90
2014,06,23,04,09,7.90
2014,06,23,04,10,7.90
2014,06,23,04,11,7.90
2014,06,23,04,12,7.90
2014,06,23,04,13,7.90
2014,06,23,04,14,7.90
2014,06,23,04,15,7.90
2014,06,23,04,16,7.90
2014,06,23,04,17,7.90
2014,06,23,04,18,7.90
2014,06,23,04,19,7.90
2014,06,23,04,20,7.90
2014,06,23,04,21,7.90
2014,06,23,04,22,7.90
2014,06,23,04,23,7.90
2014,06,23,04,24,7.90
2014,06,23,04,25,7.90
2014,06,23,04,26,7.90
2014,06,23,04,27,7.90
2014,06,23,04,28,7.90
2014,06,23,04,29,7.90
2014,06,23,04,30,7.90
2014,06,23,04,31,7.90
2014,06,23,04,32,8.00
2014,06,23,04,33,8.00
2014,06,23,04,34,8.00
2014,06,23,04,35,8.00
2014,06,23,04,36,8.00
2014,06,23,04,37,8.00
2014,06,23,04,38,8.00
2014,06,23,04,39,8.00
2014,06,23,04,40,8.00
2014,06,23,04,41,8.00
2014,06,23,04,42,8.00
2014,06,23,04,43,8.00
2014,06,23,04,44,8.00
2014,06,23,04,45,8.00
2014,06,23,04,46,8.70
2014,06,23,04,47,8.70
2014,06,23,04,48,8.70
2014,06,23,04,49,8.70
2014,06,23,04,50,8.70
2014,06,23,04,51,8.70
2014,06,23,04,52,8.70
2014,06,23,04,53,8.70
2014,06,23,04,54,8.70
2014,06,23,04,55,8.70
2014,06,23,04,56,8.70
2014,06,23,04,57,8.70
2014,06,23,04,58,8.70
2014,06,23,04,59,8.70
2014,06,23,05,00,8.70
2014,06,23,05,01,8.90
2014,06,23,05,02,8.90
2014,06,23,05,03,8.90
2014,06,23,05,04,8.90
2014,06,23,05,05,8.90
2014,06,23,05,06,8.90
2014,06,23,05,07,8.90
2014,06,23,05,08,8.90
2014,06,23,05,09,8.90
2014,06,23,05,10,8.90
2014,06,23,05,11,8.90
2014,06,23,05,12,8.90
2014,06,23,05,13,8.90
2014,06,23,05,14,8.90
2014,06,23,05,15,8.90
2014,06,23,05,16,8.90
2014,06,23,05,17,9.30
2014,06,23,05,18,9.30
2014,06,23,05,19,9.30
2014,06,23,05,20,9.30
2014,06,23,05,21,9.30
2014,06,23,05,22,9.30
2014,06,23,05,23,9.30
2014,06,23,05,24,9.30
2014,06,23,05,25,9.30
2014,06,23,05,26,9.30
2014,06,23,05,27,9.30
2014,06,23,05,28,9.30
2014,06,23,05,29,9.30
2014,06,23,05,30,9.30
2014,06,23,05,31,8.70
2014,06,23,05,32,8.70
2014,06,23,05,33,8.70
2014,06,23,05,34,8.70
2014,06,23,05,35,8.70
2014,06,23,05,36,8.70
2014,06,23,05,37,8.70
2014,06,23,05,38,8.70
2014,06,23,05,39,8.70
2014,06,23,05,40,8.70
2014,06,23,05,41,8.70
2014,06,23,05,42,8.70
2014,06,23,05,43,8.70
2014,06,23,05,44,8.70
2014,06,23,05,45,8.70
2014,06,23,05,47,8.80
2014,06,23,05,48,8.80
2014,06,23,05,49,8.80
2014,06,23,05,50,8.80
2014,06,23,05,51,8.80
2014,06,23,05,52,8.80
2014,06,23,05,53,8.80
2014,06,23,05,54,8.80
2014,06,23,05,55,8.80
2014,06,23,05,56,8.80
2014,06,23,05,57,8.80
2014,06,23,05,58,8.80
2014,06,23,05,59,8.80
2014,06,23,06,00,8.80
2014,06,23,06,01,9.60
2014,06,23,06,02,9.60
2014,06,23,06,03,9.60
2014,06,23,06,04,9.60
2014,06,23,06,05,9.60
2014,06,23,06,06,9.60
2014,06,23,06,07,9.60
2014,06,23,06,08,9.60
2014,06,23,06,09,9.60
2014,06,23,06,10,9.60
2014,06,23,06,11,9.60
2014,06,23,06,12,9.60
2014,06,23,06,13,9.60
2014,06,23,06,14,9.60
2014,06,23,06,15,9.60
2014,06,23,06,16,9.90
2014,06,23,06,17,9.90
2014,06,23,06,18,9.90
2014,06,23,06,19,9.90
2014,06,23,06,20,9.90
2014,06,23,06,21,9.90
2014,06,23,06,22,9.90
2014,06,23,06,23,9.90
2014,06,23,06,24,9.90
2014,06,23,06,25,9.90
2014,06,23,06,26,9.90
2014,06,23,06,27,9.90
2014,06,23,06,28,9.90
2014,06,23,06,29,9.90
2014,06,23,06,30,9.90
2014,06,23,06,31,11.10
2014,06,23,06,32,11.10
2014,06,23,06,33,11.10
2014,06,23,06,34,11.10
2014,06,23,06,35,11.10
2014,06,23,06,36,11.10
2014,06,23,06,37,11.10
2014,06,23,06,38,11.10
2014,06,23,06,39,11.10
2014,06,23,06,40,11.10
2014,06,23,06,41,11.10
2014,06,23,06,42,11.10
2014,06,23,06,43,11.10
2014,06,23,06,44,11.10
2014,06,23,06,45,11.10
2014,06,23,06,46,11.10
2014,06,23,06,47,11.00
2014,06,23,06,48,11.00
2014,06,23,06,49,11.00
2014,06,23,06,50,11.00
2014,06,23,06,51,11.00
2014,06,23,06,52,11.00
2014,06,23,06,53,11.00
2014,06,23,06,54,11.00
2014,06,23,06,55,11.00
2014,06,23,06,56,11.00
2014,06,23,06,57,11.00
2014,06,23,06,58,11.00
2014,06,23,06,59,11.00
2014,06,23,07,00,11.00
2014,06,23,07,02,12.20
2014,06,23,07,03,12.20
2014,06,23,07,04,12.20
2014,06,23,07,05,12.20
2014,06,23,07,06,12.20
2014,06,23,07,07,12.20
2014,06,23,07,08,12.20
2014,06,23,07,09,12.20
2014,06,23,07,10,12.20
2014,06,23,07,11,12.20
2014,06,23,07,12,12.20
2014,06,23,07,13,12.20
2014,06,23,07,14,12.20
2014,06,23,07,15,12.20
2014,06,23,07,16,12.40
2014,06,23,07,17,12.40
2014,06,23,07,18,12.40
2014,06,23,07,19,12.40
2014,06,23,07,20,12.40
2014,06,23,07,21,12.40
2014,06,23,07,22,12.40
2014,06,23,07,23,12.40
2014,06,23,07,24,12.40
2014,06,23,07,25,12.40
2014,06,23,07,26,12.40
2014,06,23,07,27,12.40
2014,06,23,07,28,12.40
2014,06,23,07,29,12.40
2014,06,23,07,30,12.40
2014,06,23,07,31,13.20
2014,06,23,07,32,13.20
2014,06,23,07,33,13.20
2014,06,23,07,34,13.20
2014,06,23,07,35,13.20
2014,06,23,07,36,13.20
2014,06,23,07,37,13.20
2014,06,23,07,38,13.20
2014,06,23,07,39,13.20
2014,06,23,07,40,13.20
2014,06,23,07,41,13.20
2014,06,23,07,42,13.20
2014,06,23,07,43,13.20
2014,06,23,07,44,13.20
2014,06,23,07,45,13.20
2014,06,23,07,46,13.80
2014,06,23,07,47,13.80
2014,06,23,07,48,13.80
2014,06,23,07,49,13.80
2014,06,23,07,50,13.80
2014,06,23,07,51,13.80
2014,06,23,07,52,13.80
2014,06,23,07,53,13.80
2014,06,23,07,54,13.80
2014,06,23,07,55,13.80
2014,06,23,07,56,13.80
2014,06,23,07,57,13.80
2014,06,23,07,58,13.80
2014,06,23,07,59,13.80
2014,06,23,08,00,13.80
2014,06,23,08,01,13.70
2014,06,23,08,02,13.70
2014,06,23,08,03,13.70
2014,06,23,08,04,13.70
2014,06,23,08,05,13.70
2014,06,23,08,06,13.70
2014,06,23,08,07,13.70
2014,06,23,08,08,13.70
2014,06,23,08,09,13.70
2014,06,23,08,10,13.70
2014,06,23,08,11,13.70
2014,06,23,08,12,13.70
2014,06,23,08,13,13.70
2014,06,23,08,14,13.70
2014,06,23,08,15,13.70
2014,06,23,08,16,13.50
2014,06,23,08,17,13.50
2014,06,23,08,18,13.50
2014,06,23,08,19,13.50
2014,06,23,08,20,13.50
2014,06,23,08,21,13.50
2014,06,23,08,22,13.50
2014,06,23,08,23,13.50
2014,06,23,08,24,13.50
2014,06,23,08,25,13.50
2014,06,23,08,26,13.50
2014,06,23,08,27,13.50
2014,06,23,08,28,13.50
2014,06,23,08,29,13.50
2014,06,23,08,30,13.50
2014,06,23,08,31,13.50
2014,06,23,08,32,13.50
2014,06,23,08,33,13.50
2014,06,23,08,34,13.50
2014,06,23,08,35,13.50
2014,06,23,08,36,13.50
2014,06,23,08,37,13.50
2014,06,23,08,38,13.50
2014,06,23,08,39,13.50
2014,06,23,08,40,13.50
2014,06,23,08,41,13.50
2014,06,23,08,42,13.50
2014,06,23,08,43,13.50
2014,06,23,08,44,13.50
2014,06,23,08,45,13.50
2014,06,23,08,46,13.70
2014,06,23,08,47,13.70
2014,06,23,08,48,13.70
2014,06,23,08,49,13.70
2014,06,23,08,50,13.70
2014,06,23,08,51,13.70
2014,06,23,08,52,13.70
2014,06,23,08,53,13.70
2014,06,23,08,54,13.70
2014,06,23,08,55,13.70
2014,06,23,08,56,13.70
2014,06,23,08,57,13.70
2014,06,23,08,58,13.70
2014,06,23,08,59,13.70
2014,06,23,09,00,13.70
2014,06,23,09,01,13.90
2014,06,23,09,02,13.90
2014,06,23,09,03,13.90
2014,06,23,09,04,13.90
2014,06,23,09,05,13.90
2014,06,23,09,06,13.90
2014,06,23,09,07,13.90
2014,06,23,09,08,13.90
2014,06,23,09,09,13.90
2014,06,23,09,10,13.90
2014,06,23,09,11,13.90
2014,06,23,09,12,13.90
2014,06,23,09,13,13.90
2014,06,23,09,14,13.90
2014,06,23,09,15,13.90
2014,06,23,09,16,14.30
2014,06,23,09,17,14.30
2014,06,23,09,18,14.30
2014,06,23,09,19,14.30
2014,06,23,09,20,14.30
2014,06,23,09,21,14.30
2014,06,23,09,22,14.30
2014,06,23,09,23,14.30
2014,06,23,09,24,14.30
2014,06,23,09,25,14.30
2014,06,23,09,26,14.30
2014,06,23,09,27,14.30
2014,06,23,09,28,14.30
2014,06,23,09,29,14.30
2014,06,23,09,30,14.30
2014,06,23,09,31,15.10
2014,06,23,09,32,15.10
2014,06,23,09,33,15.10
2014,06,23,09,34,15.10
2014,06,23,09,35,15.10
2014,06,23,09,36,15.10
2014,06,23,09,37,15.10
2014,06,23,09,38,15.10
2014,06,23,09,39,15.10
2014,06,23,09,40,15.10
2014,06,23,09,41,15.10
2014,06,23,09,42,15.10
2014,06,23,09,43,15.10
2014,06,23,09,44,15.10
2014,06,23,09,45,15.10
2014,06,23,09,46,15.10
2014,06,23,09,47,14.80
2014,06,23,09,48,14.80
2014,06,23,09,49,14.80
2014,06,23,09,50,14.80
2014,06,23,09,51,14.80
2014,06,23,09,52,14.80
2014,06,23,09,53,14.80
2014,06,23,09,54,14.80
2014,06,23,09,55,14.80
2014,06,23,09,56,14.80
2014,06,23,09,57,14.80
2014,06,23,09,58,14.80
2014,06,23,09,59,14.80
2014,06,23,10,00,14.80
2014,06,23,10,01,15.30
2014,06,23,10,02,15.30
2014,06,23,10,03,15.30
2014,06,23,10,04,15.30
2014,06,23,10,05,15.30
2014,06,23,10,06,15.30
2014,06,23,10,07,15.30
2014,06,23,10,08,15.30
2014,06,23,10,09,15.30
2014,06,23,10,10,15.30
2014,06,23,10,11,15.30
2014,06,23,10,12,15.30
2014,06,23,10,13,15.30
2014,06,23,10,14,15.30
2014,06,23,10,15,15.30
2014,06,23,10,16,14.80
2014,06,23,10,17,14.80
2014,06,23,10,18,14.80
2014,06,23,10,19,14.80
2014,06,23,10,20,14.80
2014,06,23,10,21,14.80
2014,06,23,10,22,14.80
2014,06,23,10,23,14.80
2014,06,23,10,24,14.80
2014,06,23,10,25,14.80
2014,06,23,10,26,14.80
2014,06,23,10,27,14.80
2014,06,23,10,28,14.80
2014,06,23,10,29,14.80
2014,06,23,10,30,14.80
2014,06,23,10,31,14.80
2014,06,23,10,32,14.80
2014,06,23,10,33,14.80
2014,06,23,10,34,14.80
2014,06,23,10,35,14.80
2014,06,23,10,36,14.80
2014,06,23,10,37,14.80
2014,06,23,10,38,14.80
2014,06,23,10,39,14.80
2014,06,23,10,40,14.80
2014,06,23,10,41,14.80
2014,06,23,10,42,14.80
2014,06,23,10,43,14.80
2014,06,23,10,44,14.80
2014,06,23,10,45,14.80
2014,06,23,10,46,14.60
2014,06,23,10,47,14.60
2014,06,23,10,48,14.60
2014,06,23,10,49,14.60
2014,06,23,10,50,14.60
2014,06,23,10,51,14.60
2014,06,23,10,52,14.60
2014,06,23,10,53,14.60
2014,06,23,10,54,14.60
2014,06,23,10,55,14.60
2014,06,23,10,56,14.60
2014,06,23,10,57,14.60
2014,06,23,10,58,14.60
2014,06,23,10,59,14.60
2014,06,23,11,00,14.60
2014,06,23,11,01,14.90
2014,06,23,11,02,14.90
2014,06,23,11,03,14.90
2014,06,23,11,04,14.90
2014,06,23,11,05,14.90
2014,06,23,11,06,14.90
2014,06,23,11,07,14.90
2014,06,23,11,08,14.90
2014,06,23,11,09,14.90
2014,06,23,11,10,14.90
2014,06,23,11,11,14.90
2014,06,23,11,12,14.90
2014,06,23,11,13,14.90
2014,06,23,11,14,14.90
2014,06,23,11,15,14.90
2014,06,23,11,16,15.80
2014,06,23,11,17,15.80
2014,06,23,11,18,15.80
2014,06,23,11,19,15.80
2014,06,23,11,20,15.80
2014,06,23,11,21,15.80
2014,06,23,11,22,15.80
2014,06,23,11,23,15.80
2014,06,23,11,24,15.80
2014,06,23,11,25,15.80
2014,06,23,11,26,15.80
2014,06,23,11,27,15.80
2014,06,23,11,28,15.80
2014,06,23,11,29,15.80
2014,06,23,11,30,15.80
2014,06,23,11,31,16.20
2014,06,23,11,32,16.20
2014,06,23,11,33,16.20
2014,06,23,11,34,16.20
2014,06,23,11,35,16.20
2014,06,23,11,36,16.20
2014,06,23,11,37,16.20
2014,06,23,11,38,16.20
2014,06,23,11,39,16.20
2014,06,23,11,40,16.20
2014,06,23,11,41,16.20
2014,06,23,11,42,16.20
2014,06,23,11,43,16.20
2014,06,23,11,44,16.20
2014,06,23,11,45,16.20
2014,06,23,11,46,16.90
2014,06,23,11,47,16.90
2014,06,23,11,48,16.90
2014,06,23,11,49,16.90
2014,06,23,11,50,16.90
2014,06,23,11,51,16.90
2014,06,23,11,52,16.90
2014,06,23,11,53,16.90
2014,06,23,11,54,16.90
2014,06,23,11,55,16.90
2014,06,23,11,56,16.90
2014,06,23,11,57,16.90
2014,06,23,11,58,16.90
2014,06,23,11,59,16.90
2014,06,23,12,00,16.90
2014,06,23,12,01,16.80
2014,06,23,12,02,16.80
2014,06,23,12,03,16.80
2014,06,23,12,04,16.80
2014,06,23,12,05,16.80
2014,06,23,12,06,16.80
2014,06,23,12,07,16.80
2014,06,23,12,08,16.80
2014,06,23,12,09,16.80
2014,06,23,12,10,16.80
2014,06,23,12,11,16.80
2014,06,23,12,12,16.80
2014,06,23,12,13,16.80
2014,06,23,12,14,16.80
2014,06,23,12,15,16.80
2014,06,23,12,16,16.10
2014,06,23,12,17,16.10
2014,06,23,12,18,16.10
2014,06,23,12,19,16.10
2014,06,23,12,20,16.10
2014,06,23,12,21,16.10
2014,06,23,12,22,16.10
2014,06,23,12,23,16.10
2014,06,23,12,24,16.10
2014,06,23,12,25,16.10
2014,06,23,12,26,16.10
2014,06,23,12,27,16.10
2014,06,23,12,28,16.10
2014,06,23,12,29,16.10
2014,06,23,12,30,16.10
2014,06,23,12,31,15.60
2014,06,23,12,32,15.60
2014,06,23,12,33,15.60
2014,06,23,12,34,15.60
2014,06,23,12,35,15.60
2014,06,23,12,36,15.60
2014,06,23,12,37,15.60
2014,06,23,12,38,15.60
2014,06,23,12,39,15.60
2014,06,23,12,40,15.60
2014,06,23,12,41,15.60
2014,06,23,12,42,15.60
2014,06,23,12,43,15.60
2014,06,23,12,44,15.60
2014,06,23,12,45,15.60
2014,06,23,12,46,15.70
2014,06,23,12,47,15.70
2014,06,23,12,48,15.70
2014,06,23,12,49,15.70
2014,06,23,12,50,15.70
2014,06,23,12,51,15.70
2014,06,23,12,52,15.70
2014,06,23,12,53,15.70
2014,06,23,12,54,15.70
2014,06,23,12,55,15.70
2014,06,23,12,56,15.70
2014,06,23,12,57,15.70
2014,06,23,12,58,15.70
2014,06,23,12,59,15.70
2014,06,23,13,00,15.70
2014,06,23,13,01,15.70
2014,06,23,13,02,15.60
2014,06,23,13,03,15.60
2014,06,23,13,04,15.60
2014,06,23,13,05,15.60
2014,06,23,13,06,15.60
2014,06,23,13,07,15.60
2014,06,23,13,08,15.60
2014,06,23,13,09,15.60
2014,06,23,13,10,15.60
2014,06,23,13,11,15.60
2014,06,23,13,12,15.60
2014,06,23,13,13,15.60
2014,06,23,13,14,15.60
2014,06,23,13,15,15.60
2014,06,23,13,16,15.50
2014,06,23,13,17,15.50
2014,06,23,13,18,15.50
2014,06,23,13,19,15.50
2014,06,23,13,20,15.50
2014,06,23,13,21,15.50
2014,06,23,13,22,15.50
2014,06,23,13,23,15.50
2014,06,23,13,24,15.50
2014,06,23,13,25,15.50
2014,06,23,13,26,15.50
2014,06,23,13,27,15.50
2014,06,23,13,28,15.50
2014,06,23,13,29,15.50
2014,06,23,13,30,15.50
2014,06,23,13,31,15.70
2014,06,23,13,32,15.70
2014,06,23,13,33,15.70
2014,06,23,13,34,15.70
2014,06,23,13,35,15.70
2014,06,23,13,36,15.70
2014,06,23,13,37,15.70
2014,06,23,13,38,15.70
2014,06,23,13,39,15.70
2014,06,23,13,40,15.70
2014,06,23,13,41,15.70
2014,06,23,13,42,15.70
2014,06,23,13,43,15.70
2014,06,23,13,44,15.70
2014,06,23,13,45,15.70
2014,06,23,13,46,15.70
2014,06,23,13,47,15.70
2014,06,23,13,48,15.70
2014,06,23,13,49,15.70
2014,06,23,13,50,15.70
2014,06,23,13,51,15.70
2014,06,23,13,52,15.70
2014,06,23,13,53,15.70
2014,06,23,13,54,15.70
2014,06,23,13,55,15.70
2014,06,23,13,56,15.70
2014,06,23,13,57,15.70
2014,06,23,13,58,15.70
2014,06,23,13,59,15.70
2014,06,23,14,00,15.70
2014,06,23,14,01,15.70
2014,06,23,14,02,15.70
2014,06,23,14,03,15.70
2014,06,23,14,04,15.70
2014,06,23,14,05,15.70
2014,06,23,14,06,15.70
2014,06,23,14,07,15.70
2014,06,23,14,08,15.70
2014,06,23,14,09,15.70
2014,06,23,14,10,15.70
2014,06,23,14,11,15.70
2014,06,23,14,12,15.70
2014,06,23,14,13,15.70
2014,06,23,14,14,15.70
2014,06,23,14,15,15.70
2014,06,23,14,16,15.90
2014,06,23,14,17,15.90
2014,06,23,14,18,15.90
2014,06,23,14,19,15.90
2014,06,23,14,20,15.90
2014,06,23,14,21,15.90
2014,06,23,14,22,15.90
2014,06,23,14,23,15.90
2014,06,23,14,24,15.90
2014,06,23,14,25,15.90
2014,06,23,14,26,15.90
2014,06,23,14,27,15.90
2014,06,23,14,28,15.90
2014,06,23,14,29,15.90
2014,06,23,14,30,15.90
2014,06,23,14,31,16.30
2014,06,23,14,32,16.30
2014,06,23,14,33,16.30
2014,06,23,14,34,16.30
2014,06,23,14,35,16.30
2014,06,23,14,36,16.30
2014,06,23,14,37,16.30
2014,06,23,14,38,16.30
2014,06,23,14,39,16.30
2014,06,23,14,40,16.30
2014,06,23,14,41,16.30
2014,06,23,14,42,16.30
2014,06,23,14,43,16.30
2014,06,23,14,44,16.30
2014,06,23,14,45,16.30
2014,06,23,14,46,15.90
2014,06,23,14,47,15.90
2014,06,23,14,48,15.90
2014,06,23,14,49,15.90
2014,06,23,14,50,15.90
2014,06,23,14,51,15.90
2014,06,23,14,52,15.90
2014,06,23,14,53,15.90
2014,06,23,14,54,15.90
2014,06,23,14,55,15.90
2014,06,23,14,56,15.90
2014,06,23,14,57,15.90
2014,06,23,14,58,15.90
2014,06,23,14,59,15.90
2014,06,23,15,00,15.90
2014,06,23,15,01,15.60
2014,06,23,15,02,15.60
2014,06,23,15,03,15.60
2014,06,23,15,04,15.60
2014,06,23,15,05,15.60
2014,06,23,15,06,15.60
2014,06,23,15,07,15.60
2014,06,23,15,08,15.60
2014,06,23,15,09,15.60
2014,06,23,15,10,15.60
2014,06,23,15,11,15.60
2014,06,23,15,12,15.60
2014,06,23,15,13,15.60
2014,06,23,15,14,15.60
2014,06,23,15,15,15.60
2014,06,23,15,16,15.50
2014,06,23,15,17,15.50
2014,06,23,15,18,15.50
2014,06,23,15,19,15.50
2014,06,23,15,20,15.50
2014,06,23,15,21,15.50
2014,06,23,15,22,15.50
2014,06,23,15,23,15.50
2014,06,23,15,24,15.50
2014,06,23,15,25,15.50
2014,06,23,15,26,15.50
2014,06,23,15,27,15.50
2014,06,23,15,28,15.50
2014,06,23,15,29,15.50
2014,06,23,15,30,15.50
2014,06,23,15,31,15.50
2014,06,23,15,32,15.20
2014,06,23,15,33,15.20
2014,06,23,15,34,15.20
2014,06,23,15,35,15.20
2014,06,23,15,36,15.20
2014,06,23,15,37,15.20
2014,06,23,15,38,15.20
2014,06,23,15,39,15.20
2014,06,23,15,40,15.20
2014,06,23,15,41,15.20
2014,06,23,15,42,15.20
2014,06,23,15,43,15.20
2014,06,23,15,44,15.20
2014,06,23,15,45,15.20
2014,06,23,15,46,15.10
2014,06,23,15,47,15.10
2014,06,23,15,48,15.10
2014,06,23,15,49,15.10
2014,06,23,15,50,15.10
2014,06,23,15,51,15.10
2014,06,23,15,52,15.10
2014,06,23,15,53,15.10
2014,06,23,15,54,15.10
2014,06,23,15,55,15.10
2014,06,23,15,56,15.10
2014,06,23,15,57,15.10
2014,06,23,15,58,15.10
2014,06,23,15,59,15.10
2014,06,23,16,00,15.10
2014,06,23,16,01,14.70
2014,06,23,16,02,14.70
2014,06,23,16,03,14.70
2014,06,23,16,04,14.70
2014,06,23,16,05,14.70
2014,06,23,16,06,14.70
2014,06,23,16,07,14.70
2014,06,23,16,08,14.70
2014,06,23,16,09,14.70
2014,06,23,16,10,14.70
2014,06,23,16,11,14.70
2014,06,23,16,12,14.70
2014,06,23,16,13,14.70
2014,06,23,16,14,14.70
2014,06,23,16,15,14.70
2014,06,23,16,16,14.70
2014,06,23,16,17,14.60
2014,06,23,16,18,14.60
2014,06,23,16,19,14.60
2014,06,23,16,20,14.60
2014,06,23,16,21,14.60
2014,06,23,16,22,14.60
2014,06,23,16,23,14.60
2014,06,23,16,24,14.60
2014,06,23,16,25,14.60
2014,06,23,16,26,14.60
2014,06,23,16,27,14.60
2014,06,23,16,28,14.60
2014,06,23,16,29,14.60
2014,06,23,16,30,14.60
2014,06,23,16,31,14.10
2014,06,23,16,32,14.10
2014,06,23,16,33,14.10
2014,06,23,16,34,14.10
2014,06,23,16,35,14.10
2014,06,23,16,36,14.10
2014,06,23,16,37,14.10
2014,06,23,16,38,14.10
2014,06,23,16,39,14.10
2014,06,23,16,40,14.10
2014,06,23,16,41,14.10
2014,06,23,16,42,14.10
2014,06,23,16,43,14.10
2014,06,23,16,44,14.10
2014,06,23,16,45,14.10
2014,06,23,16,46,13.80
2014,06,23,16,47,13.80
2014,06,23,16,48,13.80
2014,06,23,16,49,13.80
2014,06,23,16,50,13.80
2014,06,23,16,51,13.80
2014,06,23,16,52,13.80
2014,06,23,16,53,13.80
2014,06,23,16,54,13.80
2014,06,23,16,55,13.80
2014,06,23,16,56,13.80
2014,06,23,16,57,13.80
2014,06,23,16,58,13.80
2014,06,23,16,59,13.80
2014,06,23,17,00,13.80
2014,06,23,17,01,13.00
2014,06,23,17,02,13.00
2014,06,23,17,03,13.00
2014,06,23,17,04,13.00
2014,06,23,17,05,13.00
2014,06,23,17,06,13.00
2014,06,23,17,07,13.00
2014,06,23,17,08,13.00
2014,06,23,17,09,13.00
2014,06,23,17,10,13.00
2014,06,23,17,11,13.00
2014,06,23,17,12,13.00
2014,06,23,17,13,13.00
2014,06,23,17,14,13.00
2014,06,23,17,15,13.00
2014,06,23,17,16,12.60
2014,06,23,17,17,12.60
2014,06,23,17,18,12.60
2014,06,23,17,19,12.60
2014,06,23,17,20,12.60
2014,06,23,17,21,12.60
2014,06,23,17,22,12.60
2014,06,23,17,23,12.60
2014,06,23,17,24,12.60
2014,06,23,17,25,12.60
2014,06,23,17,26,12.60
2014,06,23,17,27,12.60
2014,06,23,17,28,12.60
2014,06,23,17,29,12.60
2014,06,23,17,30,12.60
2014,06,23,17,31,12.30
2014,06,23,17,32,12.30
2014,06,23,17,33,12.30
2014,06,23,17,34,12.30
2014,06,23,17,35,12.30
2014,06,23,17,36,12.30
2014,06,23,17,37,12.30
2014,06,23,17,38,12.30
2014,06,23,17,39,12.30